, CA

(GMT )
Point Mugu

Weather History for KNTD - October, 2012

Change the Weather History Date:

Monday, October 15, 2012

  Actual Average Record
Temperature  
Mean Temperature 68 °F -  
Max Temperature 79 °F 68 °F 97 °F (1997)
Min Temperature 57 °F 52 °F 33 °F (1996)
Cooling Degree Days 2    
Growing Degree Days 18 (Base 50)    
Moisture  
Dew Point 62 °F    
Average Humidity 88    
Maximum Humidity 100    
Minimum Humidity 68    
Precipitation  
Precipitation 0.00 in - - ()
Sea Level Pressure  
Sea Level Pressure 29.90 in    
Wind  
Wind Speed 5 mph (NW)    
Max Wind Speed 12 mph    
Max Gust Speed -    
Visibility 7 miles    
Events      
Averages and records for this station are not official NWS values.
T = Trace of Precipitation, MM = Missing Value Source: NWS Daily Summary

Daily Weather History Graph

Daily Weather History Graph

Search for Another Location

Airport or City:

Trip Planner

Search our weather history database for the weather conditions in past years. The results will help you decide how hot, cold, wet, or windy it might be!

Date:

Astronomy

Oct. 15, 2012 Rise Set
Actual Time 7:02 AM PDT 6:21 PM PDT
Civil Twilight 6:36 AM PDT 6:46 PM PDT
Nautical Twilight 6:07 AM PDT 7:15 PM PDT
Astronomical Twilight 5:38 AM PDT 7:44 PM PDT
Moon 7:15 AM PDT (10/15) 6:28 PM PDT (10/15)
Length of Visible Light 12h 09m
Length of Day
11h 19m
New Moon, 0% of the Moon is Illuminated
Oct 15
New Moon
Oct 21
First Quarter
Oct 29
Full
Nov 6
Last Quarter
Nov 13
New

Hourly Weather History & Observations

Time (PDT) Temp. Dew Point Humidity Pressure Visibility Wind Dir Wind Speed Gust Speed Precip Events Conditions
12:54 AM 60.1 °F 60.1 °F 100% 29.94 in 5.0 mi NNW 5.8 mph - N/A   Clear
1:54 AM 60.1 °F 60.1 °F 100% 29.94 in 6.0 mi Calm Calm - N/A   Clear
2:54 AM 60.1 °F 57.0 °F 90% 29.92 in 8.0 mi NNW 5.8 mph - N/A   Clear
3:54 AM 57.0 °F 57.0 °F 100% 29.91 in 7.0 mi Calm Calm - N/A   Clear
4:54 AM 59.0 °F 57.9 °F 96% 29.91 in 7.0 mi North 3.5 mph - N/A   Clear
5:54 AM 57.9 °F 57.9 °F 100% 29.91 in 6.0 mi North 4.6 mph - N/A   Clear
6:54 AM 59.0 °F 53.1 °F 81% 29.92 in 7.0 mi North 5.8 mph - N/A   Partly Cloudy
7:54 AM 57.9 °F 55.0 °F 90% 29.92 in 7.0 mi North 8.1 mph - N/A   Partly Cloudy
8:54 AM 66.9 °F 55.9 °F 68% 29.94 in 7.0 mi Calm Calm - N/A   Scattered Clouds
9:54 AM 72.0 °F 61.0 °F 68% 29.94 in 7.0 mi Calm Calm - N/A   Scattered Clouds
10:54 AM 78.1 °F 68.0 °F 71% 29.93 in 7.0 mi WNW 5.8 mph - N/A   Scattered Clouds
11:54 AM 75.9 °F 68.0 °F 76% 29.92 in 7.0 mi WSW 11.5 mph - N/A   Partly Cloudy
12:54 PM 73.0 °F 64.9 °F 76% 29.91 in 7.0 mi West 6.9 mph - N/A   Partly Cloudy
1:54 PM 73.0 °F 66.0 °F 79% 29.89 in 7.0 mi WSW 10.4 mph - N/A   Partly Cloudy
2:54 PM 72.0 °F 64.9 °F 78% 29.88 in 7.0 mi WSW 10.4 mph - N/A   Partly Cloudy
3:54 PM 72.0 °F 66.0 °F 81% 29.87 in 7.0 mi WSW 8.1 mph - N/A   Partly Cloudy
4:54 PM 70.0 °F 64.9 °F 84% 29.86 in 6.0 mi West 6.9 mph - N/A   Haze
5:54 PM 68.0 °F 64.0 °F 87% 29.86 in 7.0 mi Calm Calm - N/A   Partly Cloudy
6:54 PM 64.9 °F 64.9 °F 100% 29.86 in 7.0 mi NW 5.8 mph - N/A   Partly Cloudy
7:54 PM 64.0 °F 64.0 °F 100% 29.86 in 7.0 mi NNW 3.5 mph - N/A   Partly Cloudy
8:54 PM 64.0 °F 64.0 °F 100% 29.87 in 7.0 mi NNW 6.9 mph - N/A   Partly Cloudy
9:54 PM 64.0 °F 64.0 °F 100% 29.88 in 7.0 mi NW 4.6 mph - N/A   Clear
10:54 PM 63.0 °F 63.0 °F 100% 29.86 in 7.0 mi NNW 5.8 mph - N/A   Clear
11:54 PM 64.0 °F 59.0 °F 84% 29.86 in 7.0 mi Calm Calm - N/A   Clear